AirNav   Air Wisconsin Up To $57,000 Bonus
 
 644 users online  

KCPK Chesapeake Regional Airport
Norfolk, Virginia, USA

GOING TO NORFOLK?


FAA INFORMATION EFFECTIVE 16 JUNE 2022

Location

FAA Identifier: CPK
Lat/Long: 36-39-56.2230N 076-19-14.3610W
36-39.937050N 076-19.239350W
36.6656175,-76.3206558
(estimated)
Elevation: 18.7 ft. / 5.7 m (surveyed)
Variation: 11W (2010)
From city: 12 miles S of NORFOLK, VA
Time zone: UTC -4 (UTC -5 during Standard Time)
Zip code: 23323

Airport Operations

Airport use: Open to the public
Control tower: no
ARTCC: WASHINGTON CENTER
FSS: LEESBURG FLIGHT SERVICE STATION
NOTAMs facility: CPK (NOTAM-D service available)
Attendance: 0800-2000
Pattern altitude: TPA 1000FT AGL (1020 FT MSL) TURBINE/LARGE ACFT 1500 FT AGL (1520 FT MSL).
Wind indicator: lighted
Segmented circle: yes
Lights: ACTVT HIRL RY 05/23, MALSR RY 05 AND REIL RY 23 - CTAF.
Beacon: white-green (lighted land airport)
Operates sunset to sunrise.

Airport Communications

CTAF/UNICOM: 123.075
WX AWOS-3: 123.675 (757-204-4290)
NORFOLK APPROACH: 118.9 125.2
NORFOLK DEPARTURE: 118.9 125.2
WX AWOS-3PT at PVG (9 nm NW): 118.375 (757-465-2175)
WX AWOS-3 at SFQ (13 nm W): 119.375 (757-934-3942)
WX ASOS at ORF (15 nm NE): PHONE 757-460-9348
WX ASOS at NTU (17 nm NE): PHONE DSN 433-3619 or 757-433-3619

Airport Services

Fuel available: 100LL JET-A
A:FOR FUEL AFT HRS CALL IN ADVANCE 757-421-9000. SELF-SVC AVBL.
100LL:FOR FUEL AFTER HRS CALL 757-421-9000.
Parking: hangars and tiedowns
Airframe service: MAJOR
Powerplant service: MAJOR

Runway Information

Runway 5/23

Dimensions: 5500 x 100 ft. / 1676 x 30 m
Surface: asphalt/grooved, in good condition
Weight bearing capacity: 
Single wheel: 30.0
Runway edge lights: high intensity
RUNWAY 5  RUNWAY 23
Latitude: 36-39.574645N36-40.299432N
Longitude: 076-19.577148W076-18.901512W
Elevation: 16.5 ft.18.4 ft.
Traffic pattern: leftright
Runway heading: 047 magnetic, 036 true227 magnetic, 216 true
Markings: precision, in fair conditionnonprecision, in fair condition
Visual slope indicator: 4-light PAPI on left (3.00 degrees glide path)4-light PAPI on left (3.00 degrees glide path)
Approach lights: MALSR: 1,400 foot medium intensity approach lighting system with runway alignment indicator lights
Runway end identifier lights: noyes
Touchdown point: yes, no lightsyes, no lights
Instrument approach: ILS/DME
Obstructions: 59 ft. tree, 1754 ft. from runway, 720 ft. left of centerline, 26:1 slope to clear89 ft. tree, 2205 ft. from runway, 166 ft. right of centerline, 22:1 slope to clear

Airport Ownership and Management from official FAA records

Ownership: Publicly-owned
Owner: CHESAPEAKE AIRPORT AUTHORITY
2800 AIRPORT DRIVE
CHESAPEAKE, VA 23323-6402
Phone 757-432-8110
Manager: CHRIS SCHRANTZ
2800 AIRPORT DRIVE
CHESAPEAKE, VA 23323-6402
Phone 757-432-8110

Airport Operational Statistics

Aircraft based on the field: 118
Single engine airplanes: 108
Multi engine airplanes: 8
Helicopters: 2
    
Aircraft operations: avg 138/day *
67% local general aviation
27% transient general aviation
4% air taxi
2% military
* for 12-month period ending 31 December 2019

Additional Remarks

DEER AND GEESE ON & INVOF RY.
GCO AVBL ON FREQ 135.075 THRU NORFOLK CD. IF UN, FOR CD CTC NORFOLK APCH AT 757-464-0757.
NOISE ABATEMENT PROCEDURES IN EFFECT; CTC AMGR 757-432-8110.

Instrument Procedures

NOTE: All procedures below are presented as PDF files. If you need a reader for these files, you should download the free Adobe Reader.

NOT FOR NAVIGATION. Please procure official charts for flight.
FAA instrument procedures published for use from 16 June 2022 at 0901Z to 14 July 2022 at 0900z.

 
STARs - Standard Terminal Arrivals
DRONE TWO   2 pages: [1] [2] (289KB)
TERKS TWO   download (182KB)
 
IAPs - Instrument Approach Procedures
ILS OR LOC RWY 05   download (307KB)
RNAV (GPS) RWY 05   download (267KB)
RNAV (GPS) RWY 23   download (228KB)
NOTE: Special Alternate Minimums apply   download (60KB)
NOTE: Special Take-Off Minimums/Departure Procedures apply   download (140KB)

Other nearby airports with instrument procedures:

KPVG - Hampton Roads Executive Airport (9 nm NW)
KSFQ - Suffolk Executive Airport (13 nm W)
KORF - Norfolk International Airport (15 nm NE)
KNGU - Norfolk Naval Station (Chambers Field) (16 nm N)
KNTU - Oceana Naval Air Station (Apollo Soucek Field) (17 nm NE)
KNHU - Norfolk Naval Station Airport (17 nm N)
 
Loc | Ops | Rwys | IFR | FBO | Links
Com | Nav | Svcs | Stats | Notes
Area around KCPK (Chesapeake Regional Airport)
 
Road maps at: MapQuest Bing Google
 
Aerial photo
WARNING: Photo may not be current or correct
Aerial photo of KCPK (Chesapeake Regional Airport)
Photo by Sheila Beaton
Photo taken 23-Mar-2013
looking north.

Do you have a better or more recent aerial photo of Chesapeake Regional Airport that you would like to share? If so, please send us your photo.

 
Sectional chart

 
Airport diagram
CAUTION: Diagram may not be current
Diagram of KCPK (Chesapeake Regional Airport)
 
Airport distance calculator
Flying to Chesapeake Regional Airport? Find the distance to fly.

From to KCPK

Sunrise and sunset
Times for 30-Jun-2022
 Local
(UTC-4)
 Zulu
(UTC)
Morning civil twilight05:2009:20
Sunrise05:5109:51
Sunset20:2700:27
Evening civil twilight20:5800:58

Current date and time
Zulu (UTC)  30-Jun-2022 10:35:53
Local (UTC-4)  30-Jun-2022 06:35:53
 
METAR
KCPK 300955Z AUTO 00000KT 10SM CLR 16/16 A3025 RMK AO2 T01640157
KNFE 
9nm E 
300956Z AUTO 00000KT 9SM CLR 18/16 A3025 RMK AO2 SLP244 T01780161
KSFQ 
13nm W 
300955Z AUTO 00000KT 10SM BKN013 18/18 A3026 RMK AO2 T01800175
KORF 
15nm N 
300951Z 20003KT 10SM CLR 20/19 A3024 RMK AO2 SLP239 T02000189
KNGU 
15nm N 
300959Z 19003KT 8SM SCT200 20/18 A3026 RMK AO2 SLP245 T02000183
KNTU 
17nm NE 
300956Z 23003KT 10SM SCT300 19/18 A3024 RMK AO2 SLP241 T01940183
TAF
KORF 
15nm N 
300536Z 3006/0106 18004KT P6SM SKC FM301200 22004KT P6SM SKC FM301800 11007KT P6SM SCT050 FM302300 17009KT P6SM SKC
KNGU 
15nm N 
3007/0107 20006KT 9999 SKC QNH3018INS TEMPO 3007/3009 VRB04KT 8000 BR SCT020 FM301200 VRB04KT 9999 SKC QNH3009INS BECMG 3018/3020 16008G16KT FEW040 FEW300 QNH3008INS T20/3010Z T31/3020Z FN00071
KNTU 
17nm NE 
3007/0107 17008KT 9999 SCT300 QNH3017INS TEMPO 3007/3010 VRB04KT 8000 BR SCT020 FM301100 VRB06KT 9999 SCT040 QNH3020INS BECMG 3017/3019 15010G18KT FEW040 FEW300 QNH3008INS T20/3010Z T30/3019Z FN00071
NOTAMs
Click for the latest NOTAMs
NOTAMs are issued by the DoD/FAA and will open in a separate window not controlled by AirNav.

 

 
 

FBO, Fuel Providers, and Aircraft Ground Support

  
 Business Name 
 
 Contact 
 
 Services / Description 
 
Fuel Prices
 
Comments
  
Horizon Aviation Services UNICOM 123.075
757-421-9000
toll-free 800-600-9990
[web site]
[email]
Airport management, Aviation fuel, Aircraft parking (ramp or tiedown), Passenger terminal and lounge, Pilot school (FAR Part 141), Aircraft rental, ...
More info and photos of Horizon Aviation Services
 
Phillips 66® Aviation Contract Fuel   Certificated Pilot School   FAA-Approved Repair Station   Cessna Pilot Center   Cessna Service Center   PSI FAA Test Center   FAA Authorized Chart Agent   Wireless Internet Access (WiFi)   Wheelchair Accessible  
 
Phillips 66
100LL Jet A
FS $7.89 $7.29 
SS $7.39 $6.79 
GUARANTEED
 
   4 read write
FS=Full service
SS=Self service
Update Fuel Prices
 

Would you like to see your business listed on this page?

 If your business provides an interesting product or service to pilots, flight crews, aircraft, or users of the Chesapeake Regional Airport, you should consider listing it here.  To start the listing process, click on the button below
 
Add a business
 

Other Pages about Chesapeake Regional Airport

www.chesapeakeairport.com
www.flyvirginia.com/...
 
Update a link
 
Copyright © AirNav, LLC. All rights reserved. Privacy Policy  Contact